Wind_Speed
103 108 102 94 91 88 90 98 95 93 87 100 99 94 83 88 87 85 76 67 64 69 66 65 63 65 64 65 66 64 65 65 64 63 66 63 59 56 54 49 48 47 43 38
107 102 82 83 88 95 96 97 88 81 81 94 93 91 84 84 82 75 74 69 64 68 65 66 67 66 64 64 64 61 62 62 61 62 61 59 55 52 48 45 46 44 39 40
105 84 82 91 86 91 87 86 79 84 84 90 87 83 70 69 73 72 70 66 64 66 64 65 67 64 63 62 60 59 59 57 59 57 57 51 48 48 45 44 42 41 40 43
100 84 81 90 85 79 78 73 76 77 78 78 82 66 61 64 65 64 66 64 62 60 62 63 59 59 58 58 53 56 54 56 54 55 51 45 48 45 43 42 38 37 43 46
92 91 86 94 74 82 66 75 74 72 70 72 68 62 54 64 59 60 61 59 57 55 57 54 55 53 51 48 51 48 51 49 50 49 44 45 47 41 39 34 34 39 41 35
101 100 98 86 81 80 73 72 72 68 68 59 55 53 47 55 51 53 54 54 54 54 53 51 49 49 45 46 43 45 45 44 46 41 41 46 38 35 29 31 35 35 31 35
106 106 101 95 89 80 78 74 69 65 58 45 45 48 45 45 44 45 47 46 47 47 46 44 41 37 36 36 37 41 39 41 37 40 43 34 31 25 27 31 32 29 32 20
116 114 106 94 88 78 77 72 66 55 52 43 46 41 38 37 37 40 39 38 37 35 35 32 28 28 30 30 33 35 37 33 37 42 33 27 22 20 26 28 26 27 24 13
117 113 109 105 95 88 77 81 57 64 53 45 36 29 40 34 34 34 28 26 26 26 21 18 21 24 21 29 30 33 29 33 39 33 24 24 14 18 22 24 23 25 15 7
107 114 111 105 98 93 89 67 79 65 55 41 32 32 42 30 31 25 16 16 16 13 16 18 20 18 21 26 31 25 30 35 36 24 21 17 14 14 20 24 19 21 11 3
87 88 98 107 104 93 86 86 75 68 58 45 32 42 33 29 25 19 14 20 17 20 19 18 16 16 22 29 22 26 31 35 29 19 19 13 11 11 18 25 19 18 8 4
83 78 82 92 101 97 89 85 74 69 56 37 36 38 28 28 24 12 22 21 21 16 18 15 16 20 24 22 22 27 33 31 24 16 17 13 8 10 16 23 19 17 8 3
82 72 75 81 82 89 95 87 80 74 61 47 41 46 31 26 18 14 24 23 22 18 19 16 18 19 21 18 23 28 31 26 19 14 14 14 7 7 13 20 21 15 10 3
75 75 77 79 71 81 87 86 79 74 64 48 47 38 33 26 22 19 21 23 22 15 14 20 18 18 17 19 23 27 27 20 15 11 10 13 12 8 12 17 20 11 9 3
64 75 78 76 77 83 80 82 77 73 60 50 49 40 35 27 29 31 26 21 17 18 20 16 17 16 14 20 22 24 23 17 10 10 8 14 15 9 11 14 16 10 6 2
61 78 83 78 79 78 80 85 83 77 63 51 53 42 38 31 29 33 29 22 20 20 21 18 16 11 14 19 21 22 19 13 9 9 8 10 15 10 12 11 13 15 8 5
58 71 86 85 76 73 76 78 78 75 60 56 56 45 40 32 31 28 29 25 22 21 17 15 11 11 15 18 20 20 15 9 8 9 7 6 9 7 8 7 12 15 9 3
57 69 83 88 76 73 78 82 80 74 66 62 62 43 31 26 33 36 30 23 20 21 15 13 10 12 13 14 17 18 11 8 8 11 8 5 5 3 2 5 9 13 6 2
57 69 84 84 81 76 81 84 84 72 64 61 52 32 29 38 38 38 29 23 21 21 16 12 12 10 11 12 14 15 9 6 9 12 11 3 6 7 2 3 6 10 2 7
61 75 82 84 83 81 85 85 77 68 61 64 52 42 43 40 39 35 29 23 25 24 16 15 14 10 10 10 10 12 8 5 10 12 12 8 1 6 7 4 3 7 6 7
63 69 82 90 89 84 87 87 78 75 69 68 49 43 43 40 36 33 28 29 27 25 15 19 16 10 8 8 7 7 7 5 10 12 10 11 9 3 5 7 1 4 6 8
63 72 85 92 88 87 88 90 82 68 71 61 47 46 44 44 44 36 34 33 27 23 17 22 18 10 9 5 4 4 6 9 10 11 11 10 11 10 5 7 7 4 6 8
65 76 87 93 99 98 93 83 73 71 70 59 52 48 49 47 45 37 38 34 28 28 22 26 22 13 11 7 1 2 3 10 12 11 11 12 12 12 12 5 9 7 7 7
68 83 92 99 99 95 91 82 79 76 74 64 58 53 53 51 46 45 46 40 35 30 26 30 25 18 14 11 4 1 3 4 10 13 11 11 12 12 13 10 6 9 6 6
73 85 94 98 94 93 90 85 82 79 73 62 59 58 55 53 50 50 49 42 37 30 33 34 28 22 18 14 8 3 1 4 5 10 13 12 11 9 8 10 8 8 6 6
76 87 96 101 95 93 89 85 80 77 73 65 61 60 58 56 55 55 51 43 37 37 40 39 33 28 23 18 12 7 3 1 2 6 9 11 13 13 10 9 8 8 7 7
Wind_Direction
248 249 253 256 254 251 254 257 260 259 255 263 266 267 269 273 274 275 276 275 272 275 280 279 276 275 279 280 284 288 292 295 299 303 306 305 306 306 312 312 313 313 309 303
247 249 252 250 253 254 255 254 256 255 255 260 265 268 270 269 269 264 265 267 272 277 276 274 272 274 277 279 282 288 291 296 300 304 304 305 303 314 311 312 311 309 302 298
247 247 242 246 247 252 255 256 254 254 255 263 268 270 268 264 260 261 264 270 271 268 270 270 270 274 276 277 282 287 291 296 301 303 303 302 310 314 310 311 308 302 298 301
246 243 244 249 250 253 253 255 254 258 264 266 266 268 268 259 259 264 269 273 272 270 267 267 271 271 273 277 282 285 293 297 301 301 299 305 316 312 310 310 304 297 306 307
243 242 243 247 250 250 250 250 253 257 260 263 266 267 259 259 260 265 270 269 268 266 266 269 268 270 273 277 281 290 295 297 298 298 298 312 314 307 311 306 301 313 311 312
239 240 241 244 242 245 244 249 255 257 261 269 264 266 261 260 268 268 268 267 267 267 265 265 265 268 273 278 287 292 293 294 298 301 309 313 307 312 309 303 315 315 318 317
240 242 242 240 240 242 246 252 258 260 268 267 263 267 252 268 268 263 262 263 262 263 263 262 264 268 273 284 290 290 292 298 300 313 316 306 314 310 306 317 320 321 327 322
238 239 241 241 241 241 242 247 251 254 256 254 255 265 263 265 259 259 258 261 263 260 256 259 263 269 277 287 282 289 298 299 314 316 306 312 312 308 324 322 323 336 328 322
237 237 238 238 238 237 240 245 247 246 249 251 256 251 269 259 259 265 268 260 254 250 249 251 259 275 273 279 287 297 299 315 314 310 309 314 294 307 334 329 328 339 333 319
231 232 234 235 236 237 237 234 238 246 248 249 248 252 255 256 264 275 276 243 231 228 231 248 265 259 275 289 297 300 318 314 310 307 314 305 276 323 342 335 330 343 336 330
226 227 228 230 233 235 237 237 240 241 244 238 234 257 252 259 265 262 219 202 215 215 239 248 253 271 289 295 301 317 320 312 310 304 318 280 267 314 335 346 340 340 332 332
220 217 219 224 226 227 230 231 230 236 236 231 239 243 248 255 257 242 202 214 218 221 253 250 263 279 294 300 311 323 318 314 306 314 315 256 251 308 338 351 338 339 344 353
216 207 211 216 219 219 224 225 223 225 223 221 222 246 250 246 245 219 205 210 207 233 238 262 280 282 296 302 319 320 316 315 305 317 307 240 238 296 330 348 344 338 343 72
211 201 205 210 206 215 219 220 219 224 223 215 223 247 242 236 227 223 211 211 219 250 254 272 279 291 292 308 319 318 324 315 301 323 298 239 243 274 316 341 345 336 342 30
205 197 201 202 203 205 208 213 215 220 217 214 229 234 231 228 222 222 211 214 236 238 271 286 284 295 296 311 322 323 327 311 311 323 292 246 243 270 306 331 338 339 338 3
199 197 196 195 198 203 199 202 207 213 209 208 225 222 222 219 215 218 210 209 227 249 274 272 292 281 308 317 325 328 325 309 328 334 314 262 244 259 294 317 324 343 319 299
193 194 194 195 193 196 200 201 205 208 202 208 220 215 219 214 216 212 210 210 225 250 251 266 270 283 308 324 320 328 330 325 350 354 330 266 239 245 288 320 321 349 336 282
189 192 193 195 189 191 193 197 202 204 199 204 216 217 223 204 207 207 203 209 234 246 253 249 246 268 307 320 320 330 338 343 13 10 341 253 209 191 287 314 321 353 14 75
187 186 194 187 186 188 192 195 201 196 199 212 223 207 200 210 213 200 205 209 225 249 256 230 236 260 303 309 323 329 349 3 32 23 12 266 207 200 194 304 330 11 32 134
184 187 187 180 185 185 190 194 194 196 200 209 210 197 201 201 189 190 196 209 231 245 255 216 229 253 288 305 323 333 358 33 51 37 26 28 231 199 187 193 346 18 53 121
181 186 180 180 182 186 187 191 186 192 194 205 202 196 200 197 188 195 206 224 235 237 234 209 222 242 266 292 328 340 9 62 71 54 39 36 43 98 169 179 144 47 57 80
180 180 179 180 183 187 187 189 187 189 198 203 194 196 196 198 198 203 217 220 223 224 221 206 217 223 249 262 321 1 25 64 84 78 61 58 59 62 131 164 146 111 100 114
178 177 178 181 184 185 186 186 187 191 199 198 193 196 194 193 197 204 217 216 218 225 216 203 212 206 234 237 280 22 37 64 72 91 82 75 75 72 72 116 156 142 123 126
177 176 178 182 185 182 183 182 187 192 197 194 192 196 199 197 198 215 217 219 216 215 217 202 208 204 220 225 200 307 54 71 73 76 93 98 89 73 75 77 125 160 142 125
178 177 179 181 183 184 183 182 187 193 198 195 193 197 202 199 205 214 216 223 211 219 215 202 205 206 211 220 203 194 350 61 72 81 84 91 95 90 107 97 105 117 154 175
178 179 181 185 181 184 183 183 189 194 197 197 194 200 203 204 210 214 217 222 220 222 208 204 204 205 204 215 218 204 230 238 84 67 78 94 90 90 103 110 98 105 127 152
Height
10639 10635 10665 10693 10683 10695 10703 10712 10725 10726 10722 10716 10726 10742 10758 10750 10747 10747 10753 10757 10757 10752 10755 10752 10748 10743 10743 10740 10736 10731 10727 10722 10717 10711 10704 10696 10688 10678 10668 10658 10650 10643 10637 10633
10608 10635 10674 10646 10660 10672 10686 10696 10708 10705 10709 10700 10716 10732 10745 10737 10735 10735 10734 10740 10744 10742 10739 10738 10734 10733 10732 10729 10725 10723 10718 10714 10708 10702 10695 10687 10678 10669 10659 10652 10643 10636 10632 10626
10593 10645 10621 10631 10639 10655 10673 10682 10681 10686 10691 10699 10705 10719 10726 10725 10720 10719 10722 10728 10729 10725 10726 10725 10721 10722 10720 10718 10717 10714 10710 10706 10700 10694 10686 10679 10669 10662 10652 10645 10637 10631 10625 10618
10579 10612 10618 10616 10632 10644 10658 10660 10661 10674 10685 10693 10684 10711 10711 10703 10702 10712 10711 10713 10715 10716 10713 10711 10713 10710 10709 10709 10708 10705 10702 10697 10692 10686 10678 10670 10661 10653 10645 10637 10632 10626 10618 10610
10583 10584 10600 10600 10635 10621 10650 10638 10650 10661 10671 10675 10682 10691 10694 10683 10697 10701 10701 10701 10700 10701 10699 10701 10700 10699 10700 10699 10699 10697 10693 10689 10684 10677 10670 10661 10654 10646 10639 10632 10626 10619 10611 10604
10559 10562 10571 10601 10608 10610 10620 10628 10641 10651 10657 10673 10672 10680 10681 10673 10691 10689 10688 10690 10689 10689 10689 10689 10689 10691 10692 10692 10692 10689 10685 10682 10675 10669 10662 10654 10647 10641 10634 10629 10622 10615 10608 10600
10542 10539 10557 10573 10586 10603 10608 10620 10633 10642 10653 10666 10663 10668 10668 10674 10677 10676 10676 10677 10676 10675 10677 10678 10681 10684 10684 10685 10685 10682 10679 10673 10668 10661 10654 10648 10641 10635 10631 10625 10618 10612 10605 10597
10503 10510 10539 10567 10581 10596 10600 10610 10625 10637 10642 10651 10653 10661 10662 10664 10664 10662 10665 10666 10665 10666 10668 10672 10675 10677 10678 10679 10678 10675 10671 10666 10659 10654 10648 10641 10637 10633 10628 10622 10616 10610 10603 10599
10470 10500 10522 10536 10559 10571 10598 10593 10629 10618 10632 10642 10650 10655 10653 10654 10654 10655 10658 10658 10658 10661 10664 10667 10670 10672 10673 10673 10671 10668 10664 10659 10653 10648 10641 10637 10634 10630 10626 10620 10614 10609 10603 10600
10450 10463 10497 10526 10540 10556 10567 10610 10591 10616 10627 10639 10644 10645 10640 10647 10647 10650 10652 10653 10655 10658 10661 10664 10666 10668 10668 10667 10665 10662 10658 10653 10648 10642 10637 10632 10631 10628 10626 10619 10613 10608 10604 10601
10431 10455 10481 10500 10518 10544 10566 10575 10596 10608 10619 10628 10636 10633 10637 10640 10642 10644 10647 10650 10653 10656 10659 10661 10663 10664 10663 10661 10659 10656 10652 10647 10641 10636 10632 10629 10629 10627 10626 10619 10613 10609 10605 10602
10404 10434 10456 10477 10500 10528 10549 10567 10587 10600 10614 10625 10628 10623 10633 10634 10637 10640 10643 10647 10651 10654 10656 10657 10659 10659 10658 10656 10654 10651 10647 10641 10637 10631 10628 10626 10627 10626 10624 10620 10614 10610 10606 10602
10389 10426 10441 10457 10486 10510 10524 10551 10571 10585 10599 10612 10617 10617 10626 10630 10634 10636 10639 10644 10648 10651 10652 10654 10656 10655 10653 10652 10649 10647 10642 10636 10632 10627 10625 10624 10625 10625 10623 10620 10615 10611 10607 10604
10376 10408 10427 10440 10477 10493 10515 10537 10561 10578 10593 10606 10609 10615 10619 10625 10629 10633 10638 10643 10646 10648 10651 10652 10652 10650 10650 10649 10647 10642 10636 10631 10628 10625 10623 10622 10624 10623 10622 10620 10617 10612 10609 10606
10365 10392 10409 10431 10453 10469 10501 10529 10553 10570 10587 10598 10598 10607 10613 10619 10625 10629 10635 10640 10643 10645 10647 10648 10648 10647 10648 10646 10643 10638 10632 10629 10626 10623 10621 10621 10622 10622 10621 10620 10617 10613 10611 10609
10354 10371 10394 10418 10437 10468 10485 10508 10534 10555 10575 10586 10588 10599 10606 10611 10620 10626 10632 10637 10639 10642 10644 10645 10645 10646 10646 10643 10641 10636 10631 10627 10624 10621 10619 10618 10620 10620 10620 10619 10616 10614 10611 10610
10349 10365 10387 10408 10433 10460 10483 10508 10531 10548 10567 10578 10578 10591 10598 10607 10615 10625 10629 10633 10636 10637 10639 10642 10643 10644 10643 10641 10639 10635 10629 10625 10622 10619 10617 10616 10617 10618 10619 10617 10616 10614 10610 10609
10345 10361 10381 10397 10429 10453 10476 10498 10522 10541 10550 10563 10564 10585 10595 10605 10613 10616 10626 10630 10631 10633 10637 10638 10639 10640 10641 10640 10638 10634 10628 10624 10620 10618 10615 10615 10616 10618 10618 10617 10616 10614 10612 10611
10340 10357 10368 10399 10426 10447 10470 10490 10506 10527 10548 10555 10567 10584 10595 10599 10604 10614 10620 10624 10627 10629 10633 10635 10637 10638 10639 10639 10637 10633 10627 10623 10620 10617 10615 10614 10615 10616 10617 10616 10616 10615 10614 10613
10334 10347 10369 10399 10420 10440 10461 10484 10509 10530 10546 10547 10561 10575 10583 10591 10598 10607 10614 10619 10622 10626 10630 10632 10635 10636 10638 10638 10636 10633 10628 10623 10620 10618 10617 10614 10613 10614 10615 10616 10616 10616 10615 10615
10331 10349 10371 10392 10412 10439 10459 10479 10500 10513 10531 10535 10556 10569 10577 10588 10600 10602 10608 10614 10618 10623 10626 10630 10633 10635 10636 10637 10635 10633 10629 10624 10621 10620 10619 10617 10615 10615 10616 10617 10617 10618 10617 10617
10332 10346 10369 10389 10413 10433 10455 10471 10489 10519 10522 10536 10553 10562 10572 10581 10589 10596 10603 10609 10613 10617 10622 10627 10631 10633 10635 10636 10635 10633 10630 10625 10622 10622 10621 10620 10618 10617 10617 10618 10619 10620 10620 10621
10333 10349 10370 10388 10403 10423 10448 10478 10502 10510 10518 10532 10545 10555 10565 10575 10583 10591 10598 10604 10608 10613 10618 10623 10628 10631 10633 10635 10634 10633 10632 10628 10624 10623 10622 10622 10621 10620 10620 10620 10620 10622 10624 10625
10336 10350 10367 10384 10400 10424 10450 10472 10486 10497 10505 10522 10536 10548 10559 10568 10577 10584 10591 10597 10602 10607 10613 10619 10624 10629 10631 10633 10633 10633 10632 10630 10628 10626 10624 10624 10624 10624 10623 10623 10623 10625 10626 10628
10338 10352 10367 10387 10408 10430 10447 10462 10475 10487 10502 10519 10531 10541 10552 10561 10569 10577 10585 10592 10597 10602 10608 10615 10620 10625 10628 10631 10631 10632 10632 10631 10630 10629 10627 10626 10626 10625 10626 10626 10626 10626 10628 10630
10340 10355 10370 10386 10410 10429 10444 10460 10473 10484 10497 10512 10525 10534 10544 10554 10562 10571 10579 10587 10592 10597 10603 10610 10615 10620 10624 10628 10630 10631 10632 10632 10631 10631 10630 10629 10629 10628 10627 10628 10629 10629 10630 10630